Tracking 28052 objects as of 25-Sep-2023
HD Live streaming from Space Station
objects crossing your sky now

STARLINK-3877

Track STARLINK-3877 now!
10-day predictions
STARLINK-3877 is classified as:


NORAD ID: 52355
Int'l Code: 2022-045AA
Perigee: 545.8 km
Apogee: 548.0 km
Inclination: 53.2 °
Period: 95.4 minutes
Semi major axis: 6917 km
RCS: Unknown
Launch date: April 29, 2022
Source: United States (US)
Launch site: AIR FORCE EASTERN TEST RANGE (AFETR)
Your satellite tracking list
Your tracking list is empty




NASA's NSSDC Master Catalog

Two Line Element Set (TLE):
1 52355U 22045AA  23267.26843759 -.00000803  00000-0 -32380-4 0  9990
2 52355  53.2159 267.8030 0001630  91.1868 268.9311 15.08837837 80307
Source of the keplerian elements: AFSPC